Monroe, NC

11:26 PM EST on December 11, 2019 (GMT -0500)
Monroe

Weather History for KEQY - October, 2019

Change the Weather History Date:

Tuesday, October 22, 2019

  Actual Average (KCLT) Record (KCLT)
Temperature  
Mean Temperature 70 °F -  
Max Temperature 78 °F 69 °F 85 °F (1939)
Min Temperature 57 °F 47 °F 29 °F (1952)
Cooling Degree Days 4    
Growing Degree Days 20 (Base 50)    
Moisture  
Dew Point 61 °F    
Average Humidity 80    
Maximum Humidity 96    
Minimum Humidity 30    
Precipitation  
Precipitation 0.09 in - - ()
Sea Level Pressure  
Sea Level Pressure 29.90 in    
Wind  
Wind Speed 5 mph ()    
Max Wind Speed 20 mph    
Max Gust Speed 26 mph    
Visibility 8.6 miles    
Events Rain    
Averages and records for this station are not official NWS values.
T = Trace of Precipitation, MM = Missing Value Source: Averaged Metar Reports

Daily Weather History Graph

Daily Weather History Graph

Search for Another Location

Airport or City:

Astronomy

Oct. 22, 2019 Rise Set
Actual Time 7:34 AM EDT 6:39 PM EDT
Civil Twilight 7:08 AM EDT 7:04 PM EDT
Nautical Twilight 6:38 AM EDT 7:34 PM EDT
Astronomical Twilight 6:09 AM EDT 8:03 PM EDT
Moon 1:01 AM EDT (10/22) 3:29 PM EDT (10/22)
Length of Visible Light 11h 56m
Length of Day
11h 04m
Last Quarter, 37% of the Moon is Illuminated
Oct 22
Last Quarter
Oct 27
New
Nov 4
First Quarter
Nov 12
Full
Nov 19
Last Quarter

Hourly Weather History & Observations

Time (EDT) Temp. Dew Point Humidity Pressure Visibility Wind Dir Wind Speed Gust Speed Precip Events Conditions
12:53 AM 66.0 °F 61.0 °F 84% 30.03 in 10.0 mi Variable 3.5 mph - N/A   Partly Cloudy
1:53 AM 64.0 °F 61.0 °F 90% 30.00 in 10.0 mi Variable 3.5 mph - N/A   Clear
2:26 AM 64.0 °F 60.1 °F 87% 29.98 in 10.0 mi Variable 4.6 mph - N/A   Mostly Cloudy
2:43 AM 64.0 °F 61.0 °F 90% 29.98 in 10.0 mi Variable 4.6 mph - N/A   Overcast
2:53 AM 64.0 °F 61.0 °F 90% 29.99 in 10.0 mi Calm Calm - N/A   Overcast
3:53 AM 64.9 °F 62.1 °F 90% 29.96 in 10.0 mi Calm Calm - N/A   Overcast
4:53 AM 64.9 °F 62.1 °F 90% 29.94 in 10.0 mi Variable 3.5 mph - N/A   Overcast
5:53 AM 64.9 °F 62.1 °F 90% 29.93 in 10.0 mi Variable 4.6 mph - N/A   Overcast
6:53 AM 64.9 °F 62.1 °F 90% 29.93 in 10.0 mi Variable 3.5 mph - 0.00 in Rain Light Rain
7:29 AM 64.9 °F 63.0 °F 93% 29.91 in 2.0 mi Variable 3.5 mph - 0.01 in Rain Heavy Rain
7:38 AM 64.9 °F 63.0 °F 93% 29.90 in 7.0 mi Variable 3.5 mph - 0.01 in Rain Light Rain
7:53 AM 64.9 °F 63.0 °F 93% 29.92 in 10.0 mi Variable 4.6 mph - 0.02 in   Overcast
8:41 AM 66.0 °F 64.0 °F 93% 29.90 in 3.0 mi Variable 4.6 mph - 0.02 in Rain Light Rain
8:53 AM 66.0 °F 64.0 °F 93% 29.92 in 3.0 mi Variable 5.8 mph - 0.03 in   Overcast
9:19 AM 66.0 °F 64.9 °F 96% 29.90 in 1.2 mi South 8.1 mph - 0.01 in Rain Light Rain
9:30 AM 66.9 °F 64.9 °F 93% 29.90 in 10.0 mi South 9.2 mph - 0.01 in   Overcast
9:45 AM 66.9 °F 64.9 °F 93% 29.90 in 10.0 mi Variable 5.8 mph - 0.02 in   Overcast
9:53 AM 66.9 °F 64.9 °F 93% 29.91 in 10.0 mi Variable 5.8 mph - 0.02 in   Overcast
10:53 AM 69.1 °F 66.0 °F 90% 29.90 in 10.0 mi Variable 6.9 mph - 0.01 in   Overcast
11:49 AM 69.8 °F 68.0 °F 94% 29.87 in 10.0 mi South 5.8 mph - N/A   Overcast
11:53 AM 70.0 °F 68.0 °F 93% 29.88 in 10.0 mi SSW 6.9 mph - N/A   Overcast
12:17 PM 73.0 °F 68.0 °F 84% 29.86 in 10.0 mi SSW 8.1 mph 16.1 mph N/A   Overcast
12:41 PM 73.9 °F 68.0 °F 82% 29.85 in 10.0 mi SSW 12.7 mph 19.6 mph N/A   Overcast
12:51 PM 73.4 °F 68.0 °F 83% 29.85 in 10.0 mi SSW 10.4 mph 20.7 mph N/A   Overcast
12:53 PM 73.9 °F 68.0 °F 82% 29.85 in 10.0 mi SSW 12.7 mph 19.6 mph N/A   Overcast
1:03 PM 73.0 °F 68.0 °F 84% 29.84 in 10.0 mi SW 9.2 mph 20.7 mph N/A   Overcast
1:53 PM 73.0 °F 68.0 °F 84% 29.82 in 3.0 mi SW 9.2 mph 18.4 mph 0.00 in Rain Heavy Rain
1:56 PM 72.0 °F 68.0 °F 87% 29.82 in 2.0 mi WSW 13.8 mph - 0.00 in Rain Heavy Rain
2:08 PM 73.0 °F 69.1 °F 87% 29.80 in 4.0 mi SW 15.0 mph 21.9 mph N/A Rain Light Rain
2:53 PM 75.9 °F 66.9 °F 74% 29.80 in 10.0 mi SW 13.8 mph 23.0 mph N/A   Scattered Clouds
3:53 PM 78.1 °F 60.1 °F 54% 29.79 in 10.0 mi SW 19.6 mph 26.5 mph 0.01 in   Clear
4:53 PM 77.0 °F 53.1 °F 43% 29.81 in 10.0 mi SW 12.7 mph 20.7 mph N/A   Clear
5:53 PM 73.9 °F 41.0 °F 30% 29.83 in 10.0 mi WSW 13.8 mph - N/A   Clear
6:53 PM 66.0 °F 45.0 °F 47% 29.87 in 10.0 mi SW 8.1 mph - N/A   Clear
7:53 PM 64.0 °F 46.0 °F 52% 29.90 in 10.0 mi WSW 6.9 mph - N/A   Clear
8:53 PM 62.1 °F 46.9 °F 58% 29.92 in 10.0 mi WSW 8.1 mph - N/A   Clear
9:53 PM 62.1 °F 45.0 °F 53% 29.94 in 10.0 mi Variable 3.5 mph - N/A   Clear
10:53 PM 61.0 °F 44.1 °F 54% 29.96 in 10.0 mi WNW 3.5 mph - N/A   Clear
11:53 PM 57.9 °F 43.0 °F 58% 29.98 in 10.0 mi WNW 3.5 mph - N/A   Clear